Location: Unspecified
(0.0000°N, 0.0000°E)
Time: 01:41:45
(UTC+02:00)

JASON 3 - Pass Details

Date: 30 September 2021
Orbit: 1332 x 1343 km, 66.0° (Epoch: 18 October)

Event Time Altitude Azimuth Distance (km) Brightness Sun altitude
Rises 21:01:00 0° 327° (NNW) 4,344 ? -17.8°
Reaches altitude 10° 21:03:57 10° 321° (NW) 3,372 ? -18.5°
Maximum altitude 21:11:41 47° 250° (WSW) 1,710 ? -20.4°
Drops below altitude 10° 21:19:27 10° 178° (S) 3,373 ? -22.4°
Sets 21:22:26 0° 172° (S) 4,346 ? -23.1°
